Voltar ao catálogo

FENGYUN 1C DEB

LostPO
NORAD 35130·DEBRIS·🇨🇳 China

Lançado May 10, 1999 de Taiyuan Satellite Launch Center

Loading…

Próximas Passagens (próximas 24 horas)

TLE

ObsoletoSource: Space-Track

Época: Jan 30, 2026, 07:36 UTC

1 35130U 99025DLJ 26030.31682944  .00295058  00000-0  14655-1 0  9996
2 35130  99.0301 248.2207 0012739 320.5236  39.5063 15.16203993656455

Acompanhe FENGYUN 1C DEB em tempo real com AllMySat

Download on the App Store